Kindakun Rocks, British Columbia

8:03 PM PST on December 17, 2017 (GMT -0800)
Kindakun Rocks

Weather History for CWQS - January, 2014

Change the Weather History Date:

Wednesday, January 22, 2014

  Actual Average (CYZP) Record (CYZP)
Temperature  
Mean Temperature 48 °F -  
Max Temperature 52 °F 40 °F 51 °F (2015)
Min Temperature 45 °F 34 °F 23 °F (1999)
Degree Days  
Heating Degree Days 16    
Moisture  
Dew Point 46 °F    
Average Humidity 89    
Maximum Humidity 96    
Minimum Humidity 74    
Precipitation  
Precipitation 0.02 in - - ()
Sea Level Pressure  
Sea Level Pressure 30.25 in    
Wind  
Wind Speed 19 mph ()    
Max Wind Speed 31 mph    
Max Gust Speed 37 mph    
Averages and records for this station are not official NWS values.
T = Trace of Precipitation, MM = Missing Value Source: Averaged Metar Reports

Daily Weather History Graph

Daily Weather History Graph

Search for Another Location

Airport or City:

Trip Planner

Search our weather history database for the weather conditions in past years. The results will help you decide how hot, cold, wet, or windy it might be!

Date:

Astronomy

Jan. 22, 2014 Rise Set
Actual Time 8:50 AM PST 5:15 PM PST
Civil Twilight 8:10 AM PST 5:55 PM PST
Nautical Twilight 7:27 AM PST 6:38 PM PST
Astronomical Twilight 6:46 AM PST 7:19 PM PST
Moon No Moon Rise 10:56 AM PST (1/22)
Length of Visible Light 9h 44m
Length of Day
8h 25m
Waning Gibbous, 64% of the Moon is Illuminated
Jan 22
Waning Gibbous
Jan 23
Last Quarter
Jan 30
New
Feb 6
First Quarter
Feb 14
Full

Hourly Weather History & Observations

Time (PST) Temp. Windchill Dew Point Humidity Pressure Visibility Wind Dir Wind Speed Gust Speed Precip Events Conditions
12:00 AM 46.2 °F 39.0 °F 45.0 °F 95% 30.06 in - South 18.4 mph - N/A   Unknown
1:00 AM 46 °F - 45 °F 96% 30.11 in - SSW 20.7 mph - -  
1:00 AM 46.2 °F 38.5 °F 45.1 °F 96% 30.11 in - SSW 20.7 mph - N/A   Unknown
2:00 AM 46.0 °F 39.3 °F 44.8 °F 95% 30.16 in - South 16.1 mph - N/A   Unknown
3:00 AM 46.4 °F 39.0 °F 45.1 °F 95% 30.18 in - South 19.6 mph - N/A   Unknown
4:00 AM 47 °F - 45 °F 88% 30.19 in - SSE 19.6 mph - -  
4:00 AM 46.8 °F - 44.6 °F 92% 30.19 in - SSE 19.6 mph - N/A   Unknown
5:00 AM 45.5 °F 38.9 °F 43.3 °F 92% 30.18 in - South 15.0 mph - N/A   Unknown
6:00 AM 47.7 °F - 44.1 °F 87% 30.19 in - SSE 18.4 mph - N/A   Unknown
7:00 AM 47 °F - 44 °F 87% 30.21 in - South 18.4 mph - -  
7:00 AM 47.5 °F - 44.4 °F 89% 30.21 in - South 18.4 mph - N/A   Unknown
8:00 AM 47.7 °F - 45.3 °F 92% 30.22 in - South 20.7 mph 26.5 mph 0.01 in   Unknown
9:00 AM 47.5 °F - 46.2 °F 95% 30.23 in - South 19.6 mph - 0.01 in   Unknown
10:00 AM 49 °F - 47 °F 92% 30.26 in - South 19.6 mph - -  
10:00 AM 48.7 °F - 45.5 °F 89% 30.26 in - South 19.6 mph - N/A   Unknown
11:00 AM 48.6 °F - 46.8 °F 93% 30.27 in - South 25.3 mph 33.4 mph 0.01 in   Unknown
12:00 PM 48.6 °F - 46.4 °F 92% 30.28 in - South 18.4 mph - N/A   Unknown
1:00 PM 48 °F - 46 °F 92% 30.27 in - South 26.5 mph - -  
1:00 PM 48.2 °F - 46.4 °F 93% 30.27 in - South 26.5 mph 33.4 mph 0.02 in   Unknown
2:00 PM 48.6 °F - 46.6 °F 93% 30.29 in - South 28.8 mph 36.8 mph N/A   Unknown
3:00 PM 49.6 °F - 46.6 °F 89% 30.30 in - South 31.1 mph - N/A   Unknown
4:00 PM 50 °F - 46 °F 81% 30.31 in - South 29.9 mph - -  
4:00 PM 49.8 °F - 46.0 °F 87% 30.31 in - South 29.9 mph 35.7 mph N/A   Unknown
5:00 PM 50.0 °F - 45.9 °F 86% 30.32 in - South 28.8 mph 34.5 mph N/A   Unknown
6:00 PM 51.6 °F - 46.8 °F 83% 30.31 in - South 29.9 mph - N/A   Unknown
7:00 PM 52 °F - 46 °F 74% 30.32 in - South 23.0 mph - -  
7:00 PM 51.6 °F - 46.2 °F 82% 30.32 in - South 23.0 mph - N/A   Unknown
8:00 PM 50.7 °F - 46.6 °F 86% 30.34 in - South 26.5 mph - N/A   Unknown
9:00 PM 51.6 °F - 46.9 °F 84% 30.35 in - South 25.3 mph - N/A   Unknown
10:00 PM 51 °F - 46 °F 78% 30.37 in - South 26.5 mph - -  
10:00 PM 51.1 °F - 46.2 °F 83% 30.37 in - South 26.5 mph - N/A   Unknown
11:00 PM 51.6 °F - 46.6 °F 83% 30.37 in - South 24.2 mph - N/A   Unknown